Find Starlink 35374

NORAD ID: 66194 Int'l Des: 2025-243 Owner: SPXS Country: US Constellation: starlink operational
LEOCIRCULAR

現在のビュー

3D地球を読み込み中...

About Starlink 35374

Starlink 35374 (NORAD 66194) is a starlink constellation satellite (v2 mini) launched Oct 26, 2025 by SPXS of US. It operates in LEO, CIRCULAR orbit with a mass of 575.00 kg.

次回通過

Passes for default location (London). Set your location on the main map for personalized predictions.

高度履歴

Loading altitude history...

軌道要素

1 66194U 25243T 26263.69433601 .00021517 00000-0 70260-3 0 9997
2 66194 53.1594 57.7902 0001700 84.6861 275.4335 15.31723916 50536
Epoch: Sep 20, 2026 • Age: 24 hours

現在のステータス

高度 476.0 km
遠地点 / 近地点 N/A
速度 7.63 km/s
衛星直下点 53.31°N, 105.87°W
打ち上げ日 Oct 26, 2025
運用期間 0.9 years
タイプ internet

技術仕様

分類 Payload
質量 575.00 kg
乾燥質量 530.00 kg
長さ 0.30 m
スパン 29.00 m
形状 ? Box + pan
製造者 SPXS
バスタイプ Starlink V2MO
フェーズステータス In Orbit
所有者/国 SPXS/US

Most Searched